#timestamp,LO_Frequency,Hit 
1497286815.9,286047008.6,N
1497286835.7,286047008.5,N
1497286855.6,286047008.7,N
1497286875.4,286047008.7,N
1497286895.2,286047004.7,N
1497286915.1,286047006.9,N
1497286916.0,286047006.9,N
1497286935.8,286047007.3,N
1497286955.7,286047006.8,N
1497286975.5,286047007.2,N
1497286995.3,286047004.7,N
1497287015.2,286047007.4,N
1497287035.0,286047006.9,N
1497287035.9,286047006.9,N
1497287055.8,286047004.6,N
1497287075.6,286047007.0,N
1497287095.4,286047006.9,N
1497287115.3,286047005.4,N
1497287135.1,286047007.3,N
1497287155.8,286047007.6,N
1497287175.7,286047004.7,N
1497287195.5,286047006.9,N
1497287215.3,286047007.1,N
1497287235.2,286047007.2,N
1497287255.0,286047007.0,N
1497287255.9,286047007.0,N
1497287275.8,286047006.3,N
1497287295.6,286047006.3,N
1497287315.4,286047008.5,N
1497287335.3,286047006.8,N
1497287355.1,286047007.0,N
1497287375.9,286047004.5,N
1497287395.7,286047007.5,N
1497287415.5,286047006.3,N
1497287435.4,286047006.3,N
1497287455.2,286047007.3,N
1497287475.0,286047007.5,N
1497287475.9,286047007.5,N
1497287495.8,286047007.6,N
1497287515.6,286047009.2,N
1497287535.5,286047008.5,N
1497287555.3,286047006.2,N
1497287575.1,286047006.3,N
1497287595.9,286047008.9,N
1497287615.7,286047006.3,N
1497287635.5,286047008.8,N
1497287655.4,286047009.2,N
1497287675.2,286047008.7,N
1497287695.0,286047008.7,N
1497287696.0,286047008.7,N
1497287715.8,286047008.8,N
1497287735.6,286047006.2,N
1497287755.5,286047008.8,N
1497287775.3,286047008.5,N
1497287795.1,286047008.0,N
1497287815.9,286047007.7,N
1497287835.7,286047008.8,N
1497287855.6,286047010.7,N
1497287875.4,286047008.0,N
1497287895.2,286047009.2,N
1497287915.1,286047009.2,N
1497287916.0,286047009.2,N
1497287935.8,286047009.0,N
1497287955.6,286047010.8,N
1497287975.5,286047008.4,N
1497287995.3,286047009.0,N
1497288015.2,286047008.8,N
1497288035.9,286047009.2,N
1497288055.7,286047008.4,N
1497288075.6,286047008.8,N
1497288095.4,286047008.8,N
1497288115.2,286047006.2,N
1497288135.1,286047008.6,N
1497288136.0,286047008.6,N
1497288155.8,286047009.1,N
1497288175.7,286047008.9,N
1497288195.5,286047008.9,N
1497288215.3,286047008.8,N
1497288235.2,286047008.6,N
1497288255.0,286047006.2,N
1497288255.9,286047006.2,N
1497288275.7,286047006.2,N
1497288295.6,286047008.5,N
1497288315.4,286047007.7,N
1497288335.3,286047008.2,N
1497288355.1,286047008.2,N
1497288356.0,286047008.2,N
1497288375.8,286047008.1,N
1497288395.7,286047010.7,Y
1497288415.5,286047003.3,N
1497288435.4,286047004.2,N
1497288455.2,286047001.7,N
1497288475.0,286047003.8,N
1497288475.9,286047003.8,N
1497288495.8,286047004.1,N
1497288515.6,286047005.6,N
1497288535.5,286047003.5,N
1497288555.3,286047003.5,N
1497288575.1,286047001.7,N
1497288595.9,286047004.2,N
1497288615.7,286047003.9,N
1497288635.5,286047003.2,N
1497288655.4,286047003.5,N
1497288675.2,286047003.4,N
1497288695.0,286047003.0,N
1497288696.0,286047003.0,N
1497288715.8,286047002.9,N
1497288735.6,286047003.0,N
1497288755.5,286047003.3,N
1497288775.3,286047003.1,N
1497288795.1,286047006.0,N
1497288815.9,286047003.0,N
1497288835.7,286047003.4,N
1497288855.5,286047002.9,N
1497288875.4,286047005.9,N
1497288895.2,286047005.2,N
1497288915.1,286047005.1,N
1497288916.0,286047005.1,N
1497288935.8,286047005.6,N
1497288955.6,286047005.5,N
1497288975.5,286047005.6,N
1497288995.3,286047005.7,N
1497289015.1,286047005.2,N
1497289035.9,286047007.3,Y
1497289055.7,286047001.1,N
1497289075.6,286047000.7,N
1497289095.4,286046998.6,N
1497289115.2,286046998.5,N
1497289135.1,286046999.2,N
1497289136.0,286046999.2,N
1497289155.8,286046999.0,N
1497289175.6,286046999.0,N
1497289195.5,286046999.5,N
1497289245.4,286046996.5,Y
1497289255.3,286047001.2,N
1497289275.1,286047002.3,N
1497289295.9,286047002.1,N
1497289315.7,286047001.7,N
1497289335.5,286047001.5,N
1497289355.4,286047003.6,N
1497289375.2,286047002.0,N
1497289395.0,286047003.6,N
1497289395.9,286047003.6,N
1497289415.8,286047003.9,N
1497289435.6,286047003.5,N
1497289455.5,286047003.3,N
1497289475.3,286047003.5,N
1497289495.1,286047003.2,N
1497289515.9,286047003.3,N
1497289535.7,286047001.4,N
1497289555.5,286047001.4,N
1497289575.4,286047003.5,N
1497289595.2,286047003.5,N
1497289615.0,286047003.6,N
1497289616.0,286047003.6,N
1497289635.8,286047003.9,N
1497289655.6,286047004.1,N
1497289675.5,286047003.5,N
1497289695.3,286047003.9,N
1497289715.1,286047003.8,N
1497289735.9,286047003.8,N
1497289755.7,286047003.8,N
1497289775.5,286047003.8,N
1497289795.4,286047003.2,N
1497289815.2,286047005.9,N
1497289835.1,286047003.2,N
1497289836.0,286047003.2,N
1497289855.8,286047003.3,N
1497289875.6,286047002.9,N
1497289895.5,286047003.7,N
1497289915.3,286047003.0,N
1497289935.1,286047003.0,N
1497289955.9,286047003.4,N
1497289975.7,286047003.3,N
1497289995.6,286047006.0,N
1497290015.4,286047002.9,N
1497290035.2,286047005.6,N
1497290055.1,286047005.3,N
1497290056.0,286047005.3,N
1497290075.8,286047002.9,N
1497290095.6,286047003.0,N
1497290115.5,286047004.8,N
1497290135.3,286047004.9,N
1497290155.2,286047007.6,N
1497290175.9,286047006.4,N
1497290195.7,286047004.9,N
1497290215.6,286047005.2,N
1497290235.4,286047005.3,N
1497290255.2,286047003.7,N
1497290275.1,286047005.6,N
1497290276.0,286047005.6,N
1497290295.8,286047005.9,N
1497290315.7,286047005.2,N
1497290335.5,286047004.9,N
1497290355.3,286047005.1,N
1497290375.2,286047005.5,N
1497290395.0,286047005.5,N
1497290395.9,286047005.5,N
